| time (UTC) | temp F | wind direction | speed MPH | gust MPH | rain 1hr in | rain 24hr in | rain mn in | humidity % | barometer mb |
| 20260831153844 | 86 | 336 | 0.0 | 3.0 | 0.00 | 0.00 | 0.00 | 75 | 976.8 |
| 20260831153339 | 85 | 336 | 0.0 | 3.0 | 0.00 | 0.00 | 0.00 | 77 | 976.8 |
| 20260831152834 | 85 | 316 | 0.0 | 3.0 | 0.00 | 0.00 | 0.00 | 77 | 976.8 |
| 20260831152327 | 85 | 316 | 0.0 | 3.0 | 0.00 | 0.00 | 0.00 | 77 | 976.9 |
| 20260831151824 | 84 | 316 | 1.0 | 3.0 | 0.00 | 0.00 | 0.00 | 78 | 976.9 |
| 20260831151322 | 84 | 316 | 1.0 | 3.0 | 0.00 | 0.00 | 0.00 | 78 | 976.9 |
| 20260831150819 | 83 | 314 | 1.0 | 3.0 | 0.00 | 0.00 | 0.00 | 79 | 976.9 |
| 20260831150320 | 83 | 314 | 1.0 | 4.0 | 0.00 | 0.00 | 0.00 | 81 | 976.9 |
| 20260831145818 | 83 | 314 | 2.0 | 4.0 | 0.00 | 0.00 | 0.00 | 82 | 976.9 |
| 20260831145316 | 82 | 309 | 1.0 | 4.0 | 0.00 | 0.00 | 0.00 | 83 | 976.9 |
| 20260831144813 | 82 | 313 | 1.0 | 4.0 | 0.00 | 0.00 | 0.00 | 84 | 976.9 |
| 20260831144314 | 81 | 308 | 1.0 | 3.0 | 0.00 | 0.00 | 0.00 | 84 | 976.8 |
| 20260831143813 | 81 | 308 | 1.0 | 4.0 | 0.00 | 0.00 | 0.00 | 85 | 976.8 |
| 20260831143311 | 80 | 307 | 1.0 | 4.0 | 0.00 | 0.00 | 0.00 | 85 | 976.8 |
| 20260831142810 | 80 | 306 | 1.0 | 4.0 | 0.00 | 0.00 | 0.00 | 85 | 976.9 |
| 20260831142313 | 79 | 306 | 1.0 | 5.0 | 0.00 | 0.00 | 0.00 | 85 | 976.9 |
| 20260831141810 | 79 | 306 | 1.0 | 5.0 | 0.00 | 0.00 | 0.00 | 85 | 976.9 |
| 20260831141311 | 79 | 305 | 1.0 | 4.0 | 0.00 | 0.00 | 0.00 | 85 | 976.8 |
| 20260831140809 | 79 | 5 | 1.0 | 3.0 | 0.00 | 0.00 | 0.00 | 84 | 976.8 |
| 20260831140311 | 78 | 157 | 0.0 | 3.0 | 0.00 | 0.00 | 0.00 | 83 | 976.8 |
| 20260831135811 | 77 | 228 | 0.0 | 3.0 | 0.00 | 0.00 | 0.00 | 80 | 976.8 |
| 20260831135307 | 76 | 228 | 0.0 | 3.0 | 0.00 | 0.00 | 0.00 | 75 | 976.7 |
| 20260831134805 | 75 | 228 | 0.0 | 2.0 | 0.00 | 0.00 | 0.00 | 71 | 976.8 |
| 20260831134307 | 74 | 228 | 0.0 | 2.0 | 0.00 | 0.00 | 0.00 | 69 | 976.8 |
| 20260831133806 | 74 | 246 | 0.0 | 0.0 | 0.00 | 0.00 | 0.00 | 68 | 976.9 |
| 20260831133305 | 73 | 175 | 0.0 | 0.0 | 0.00 | 0.00 | 0.00 | 68 | 976.9 |
| 20260831132806 | 73 | 171 | 0.0 | 0.0 | 0.00 | 0.00 | 0.00 | 67 | 976.9 |
| 20260831132307 | 72 | 171 | 0.0 | 0.0 | 0.00 | 0.00 | 0.00 | 68 | 976.9 |
| 20260831131806 | 71 | 171 | 0.0 | 0.0 | 0.00 | 0.00 | 0.00 | 68 | 977.0 |
| 20260831131306 | 71 | 169 | 0.0 | 0.0 | 0.00 | 0.00 | 0.00 | 68 | 976.9 |
| 20260831130805 | 70 | 169 | 0.0 | 0.0 | 0.00 | 0.00 | 0.00 | 68 | 976.8 |
| 20260831130305 | 70 | 169 | 0.0 | 0.0 | 0.00 | 0.00 | 0.00 | 68 | 976.9 |
| 20260831125806 | 69 | 169 | 0.0 | 0.0 | 0.00 | 0.00 | 0.00 | 68 | 977.0 |
| 20260831125306 | 69 | 169 | 0.0 | 0.0 | 0.00 | 0.00 | 0.00 | 68 | 977.0 |
| 20260831124805 | 68 | 169 | 0.0 | 0.0 | 0.00 | 0.00 | 0.00 | 68 | 977.0 |
| 20260831124306 | 68 | 169 | 0.0 | 0.0 | 0.00 | 0.00 | 0.00 | 68 | 977.0 |
| 20260831123805 | 67 | 169 | 0.0 | 0.0 | 0.00 | 0.00 | 0.00 | 69 | 977.0 |
| 20260831123306 | 67 | 169 | 0.0 | 0.0 | 0.00 | 0.00 | 0.00 | 69 | 977.0 |
| 20260831122805 | 67 | 169 | 0.0 | 0.0 | 0.00 | 0.00 | 0.00 | 69 | 977.0 |
| 20260831122306 | 67 | 169 | 0.0 | 0.0 | 0.00 | 0.00 | 0.00 | 69 | 976.9 |
| 20260831121805 | 66 | 168 | 0.0 | 0.0 | 0.00 | 0.00 | 0.00 | 69 | 976.8 |
| 20260831121306 | 66 | 168 | 0.0 | 0.0 | 0.00 | 0.00 | 0.00 | 69 | 976.8 |
| 20260831120805 | 65 | 168 | 0.0 | 0.0 | 0.00 | 0.00 | 0.00 | 69 | 976.7 |
| 20260831115306 | 64 | 168 | 0.0 | 0.0 | 0.00 | 0.00 | 0.00 | 70 | 976.9 |
| 20260831114803 | 64 | 168 | 0.0 | 0.0 | 0.00 | 0.00 | 0.00 | 70 | 976.9 |
| 20260831114302 | 64 | 168 | 0.0 | 0.0 | 0.00 | 0.00 | 0.00 | 70 | 976.8 |
| 20260831113757 | 64 | 168 | 0.0 | 0.0 | 0.00 | 0.00 | 0.00 | 70 | 976.8 |
| 20260831113251 | 64 | 168 | 0.0 | 0.0 | 0.00 | 0.00 | 0.00 | 70 | 976.8 |
| 20260831112744 | 63 | 168 | 0.0 | 0.0 | 0.00 | 0.00 | 0.00 | 70 | 976.8 |
| 20260831112239 | 63 | 168 | 0.0 | 0.0 | 0.00 | 0.00 | 0.00 | 70 | 976.7 |
| 20260831111227 | 63 | 168 | 0.0 | 0.0 | 0.00 | 0.00 | 0.00 | 70 | 976.6 |
| 20260831110721 | 63 | 168 | 0.0 | 0.0 | 0.00 | 0.00 | 0.00 | 70 | 976.6 |
| 20260831110215 | 64 | 168 | 0.0 | 0.0 | 0.00 | 0.00 | 0.00 | 70 | 976.5 |
| 20260831105203 | 64 | 168 | 0.0 | 0.0 | 0.00 | 0.00 | 0.00 | 70 | 976.4 |
| 20260831104657 | 64 | 168 | 0.0 | 0.0 | 0.00 | 0.00 | 0.00 | 70 | 976.4 |
| 20260831104150 | 64 | 168 | 0.0 | 0.0 | 0.00 | 0.00 | 0.00 | 70 | 976.5 |
| 20260831103645 | 64 | 168 | 0.0 | 0.0 | 0.00 | 0.00 | 0.00 | 70 | 976.5 |
| 20260831103138 | 64 | 168 | 0.0 | 0.0 | 0.00 | 0.00 | 0.00 | 70 | 976.4 |
| 20260831102632 | 64 | 168 | 0.0 | 0.0 | 0.00 | 0.00 | 0.00 | 70 | 976.3 |
| 20260831102127 | 64 | 168 | 0.0 | 0.0 | 0.00 | 0.00 | 0.00 | 70 | 976.3 |
| 20260831101620 | 64 | 168 | 0.0 | 0.0 | 0.00 | 0.00 | 0.00 | 70 | 976.4 |
| 20260831101114 | 64 | 168 | 0.0 | 0.0 | 0.00 | 0.00 | 0.00 | 70 | 976.4 |
| 20260831100608 | 64 | 168 | 0.0 | 0.0 | 0.00 | 0.00 | 0.00 | 70 | 976.2 |
| 20260831100103 | 64 | 168 | 0.0 | 0.0 | 0.00 | 0.00 | 0.00 | 70 | 976.2 |
| 20260831095556 | 64 | 168 | 0.0 | 0.0 | 0.00 | 0.00 | 0.00 | 70 | 976.1 |
| 20260831094545 | 64 | 168 | 0.0 | 0.0 | 0.00 | 0.00 | 0.00 | 70 | 976.1 |
| 20260831094039 | 64 | 168 | 0.0 | 0.0 | 0.00 | 0.00 | 0.00 | 70 | 976.1 |
| 20260831093026 | 64 | 168 | 0.0 | 0.0 | 0.00 | 0.00 | 0.00 | 70 | 976.1 |
| 20260831092520 | 64 | 168 | 0.0 | 0.0 | 0.00 | 0.00 | 0.00 | 70 | 976.1 |
| 20260831091508 | 64 | 168 | 0.0 | 0.0 | 0.00 | 0.00 | 0.00 | 70 | 976.0 |
| 20260831091002 | 64 | 168 | 0.0 | 0.0 | 0.00 | 0.00 | 0.00 | 70 | 976.0 |
| 20260831090457 | 64 | 168 | 0.0 | 0.0 | 0.00 | 0.00 | 0.00 | 71 | 976.1 |
| 20260831085950 | 64 | 168 | 0.0 | 0.0 | 0.00 | 0.00 | 0.00 | 71 | 976.1 |
| 20260831085445 | 64 | 168 | 0.0 | 0.0 | 0.00 | 0.00 | 0.00 | 71 | 976.1 |
| 20260831084938 | 64 | 168 | 0.0 | 0.0 | 0.00 | 0.00 | 0.00 | 71 | 976.2 |
| 20260831084432 | 64 | 168 | 0.0 | 0.0 | 0.00 | 0.00 | 0.00 | 71 | 976.1 |
| 20260831083927 | 65 | 168 | 0.0 | 0.0 | 0.00 | 0.00 | 0.00 | 71 | 975.9 |
| 20260831083420 | 65 | 168 | 0.0 | 0.0 | 0.00 | 0.00 | 0.00 | 71 | 975.9 |
| 20260831082915 | 65 | 168 | 0.0 | 0.0 | 0.00 | 0.00 | 0.00 | 71 | 975.9 |
| 20260831082408 | 65 | 168 | 0.0 | 0.0 | 0.00 | 0.00 | 0.00 | 71 | 975.9 |
| 20260831081903 | 65 | 168 | 0.0 | 0.0 | 0.00 | 0.00 | 0.00 | 71 | 975.9 |
| 20260831081356 | 65 | 168 | 0.0 | 0.0 | 0.00 | 0.00 | 0.00 | 71 | 975.9 |
| 20260831080851 | 65 | 168 | 0.0 | 0.0 | 0.00 | 0.00 | 0.00 | 70 | 976.0 |
| 20260831080352 | 65 | 168 | 0.0 | 0.0 | 0.00 | 0.00 | 0.00 | 70 | 976.0 |
| 20260831075849 | 65 | 168 | 0.0 | 0.0 | 0.00 | 0.00 | 0.00 | 71 | 976.0 |
| 20260831075347 | 65 | 168 | 0.0 | 0.0 | 0.00 | 0.00 | 0.00 | 71 | 976.0 |
| 20260831074845 | 65 | 168 | 0.0 | 0.0 | 0.00 | 0.00 | 0.00 | 71 | 975.9 |
| 20260831074343 | 65 | 168 | 0.0 | 0.0 | 0.00 | 0.00 | 0.00 | 71 | 975.9 |
| 20260831073841 | 65 | 168 | 0.0 | 0.0 | 0.00 | 0.00 | 0.00 | 71 | 975.8 |
| 20260831072840 | 65 | 168 | 0.0 | 0.0 | 0.00 | 0.00 | 0.00 | 71 | 975.9 |
| 20260831071837 | 65 | 168 | 0.0 | 0.0 | 0.00 | 0.00 | 0.00 | 71 | 976.0 |
| 20260831071335 | 65 | 168 | 0.0 | 0.0 | 0.00 | 0.00 | 0.00 | 71 | 975.9 |
| 20260831070336 | 66 | 168 | 0.0 | 0.0 | 0.00 | 0.00 | 0.00 | 71 | 976.0 |
| 20260831065833 | 66 | 168 | 0.0 | 0.0 | 0.00 | 0.00 | 0.00 | 71 | 976.1 |
| 20260831065333 | 66 | 168 | 0.0 | 0.0 | 0.00 | 0.00 | 0.00 | 71 | 976.1 |
| 20260831064833 | 66 | 168 | 0.0 | 0.0 | 0.00 | 0.00 | 0.00 | 71 | 976.2 |
| 20260831064333 | 66 | 168 | 0.0 | 0.0 | 0.00 | 0.00 | 0.00 | 71 | 976.3 |
| 20260831063833 | 66 | 168 | 0.0 | 0.0 | 0.00 | 0.00 | 0.00 | 71 | 976.3 |
| 20260831063334 | 67 | 168 | 0.0 | 0.0 | 0.00 | 0.00 | 0.00 | 71 | 976.4 |
| 20260831062831 | 67 | 168 | 0.0 | 0.0 | 0.00 | 0.00 | 0.00 | 71 | 976.4 |
| 20260831062329 | 67 | 168 | 0.0 | 0.0 | 0.00 | 0.00 | 0.00 | 71 | 976.3 |
| 20260831061819 | 67 | 168 | 0.0 | 0.0 | 0.00 | 0.00 | 0.00 | 71 | 976.4 |
| 20260831061314 | 67 | 168 | 0.0 | 0.0 | 0.00 | 0.00 | 0.00 | 71 | 976.5 |
| 20260831060301 | 67 | 168 | 0.0 | 0.0 | 0.00 | 0.00 | 0.00 | 72 | 976.5 |
| 20260831055756 | 66 | 168 | 0.0 | 0.0 | 0.00 | 0.00 | 0.00 | 72 | 976.6 |
| 20260831055249 | 66 | 168 | 0.0 | 0.0 | 0.00 | 0.00 | 0.00 | 72 | 976.5 |
| 20260831054744 | 67 | 168 | 0.0 | 0.0 | 0.00 | 0.00 | 0.00 | 72 | 976.6 |
| 20260831054237 | 67 | 168 | 0.0 | 0.0 | 0.00 | 0.00 | 0.00 | 72 | 976.6 |
| 20260831053731 | 67 | 168 | 0.0 | 0.0 | 0.00 | 0.00 | 0.00 | 72 | 976.6 |
| 20260831053225 | 67 | 168 | 0.0 | 0.0 | 0.00 | 0.00 | 0.00 | 72 | 976.7 |
| 20260831052719 | 67 | 168 | 0.0 | 0.0 | 0.00 | 0.00 | 0.00 | 72 | 976.7 |
| 20260831052214 | 67 | 168 | 0.0 | 0.0 | 0.00 | 0.00 | 0.00 | 73 | 976.7 |
| 20260831051707 | 67 | 168 | 0.0 | 0.0 | 0.00 | 0.00 | 0.00 | 73 | 976.8 |
| 20260831051202 | 67 | 168 | 0.0 | 0.0 | 0.00 | 0.00 | 0.00 | 73 | 976.7 |
| 20260831050655 | 67 | 168 | 0.0 | 0.0 | 0.00 | 0.00 | 0.00 | 73 | 976.7 |
| 20260831050149 | 67 | 168 | 0.0 | 0.0 | 0.00 | 0.00 | 0.00 | 73 | 976.6 |
| 20260831045644 | 67 | 168 | 0.0 | 0.0 | 0.00 | 0.00 | 0.00 | 73 | 976.6 |
| 20260831045137 | 68 | 168 | 0.0 | 0.0 | 0.00 | 0.00 | 0.00 | 73 | 976.6 |
| 20260831044631 | 68 | 168 | 0.0 | 0.0 | 0.00 | 0.00 | 0.00 | 73 | 976.6 |
| 20260831043620 | 68 | 168 | 0.0 | 0.0 | 0.00 | 0.00 | 0.00 | 73 | 976.7 |
| 20260831043113 | 68 | 168 | 0.0 | 0.0 | 0.00 | 0.00 | 0.00 | 73 | 976.7 |
| 20260831042609 | 68 | 168 | 0.0 | 0.0 | 0.00 | 0.00 | 0.00 | 73 | 976.7 |
| 20260831042101 | 68 | 168 | 0.0 | 0.0 | 0.00 | 0.00 | 0.00 | 73 | 976.7 |
| 20260831041050 | 68 | 168 | 0.0 | 0.0 | 0.00 | 0.00 | 0.00 | 74 | 976.7 |
| 20260831040543 | 68 | 168 | 0.0 | 0.0 | 0.00 | 0.00 | 0.00 | 74 | 976.7 |
| 20260831040037 | 69 | 168 | 0.0 | 0.0 | 0.00 | 0.00 | 0.00 | 74 | 976.8 |
| 20260831035531 | 69 | 168 | 0.0 | 0.0 | 0.00 | 0.00 | 0.00 | 74 | 976.9 |
| 20260831035025 | 69 | 168 | 0.0 | 0.0 | 0.00 | 0.00 | 0.00 | 75 | 976.8 |
| 20260831034519 | 69 | 168 | 0.0 | 0.0 | 0.00 | 0.00 | 0.00 | 75 | 976.9 |
| 20260831034013 | 69 | 168 | 0.0 | 0.0 | 0.00 | 0.00 | 0.00 | 75 | 976.8 |
| 20260831033507 | 69 | 168 | 0.0 | 0.0 | 0.00 | 0.00 | 0.00 | 75 | 976.8 |
| 20260831033001 | 69 | 168 | 0.0 | 0.0 | 0.00 | 0.00 | 0.00 | 75 | 976.8 |
| 20260831032455 | 69 | 168 | 0.0 | 0.0 | 0.00 | 0.00 | 0.00 | 75 | 977.0 |
| 20260831031950 | 69 | 168 | 0.0 | 0.0 | 0.00 | 0.00 | 0.00 | 75 | 976.9 |
| 20260831031444 | 69 | 168 | 0.0 | 0.0 | 0.00 | 0.00 | 0.00 | 76 | 977.0 |
| 20260831030937 | 70 | 168 | 0.0 | 0.0 | 0.00 | 0.00 | 0.00 | 76 | 977.0 |
| 20260831030432 | 70 | 168 | 0.0 | 0.0 | 0.00 | 0.00 | 0.00 | 76 | 977.0 |
| 20260831025419 | 70 | 168 | 0.0 | 0.0 | 0.00 | 0.00 | 0.00 | 77 | 977.1 |
| 20260831024914 | 70 | 168 | 0.0 | 0.0 | 0.00 | 0.00 | 0.00 | 78 | 977.1 |
| 20260831024408 | 70 | 168 | 0.0 | 0.0 | 0.00 | 0.00 | 0.00 | 78 | 977.1 |
| 20260831023902 | 70 | 168 | 0.0 | 0.0 | 0.00 | 0.00 | 0.00 | 78 | 977.1 |
| 20260831022850 | 71 | 168 | 0.0 | 0.0 | 0.00 | 0.00 | 0.00 | 78 | 977.1 |
| 20260831021837 | 71 | 168 | 0.0 | 0.0 | 0.00 | 0.00 | 0.00 | 78 | 977.1 |
| 20260831021331 | 71 | 168 | 0.0 | 0.0 | 0.00 | 0.00 | 0.00 | 79 | 977.1 |
| 20260831020319 | 71 | 168 | 0.0 | 0.0 | 0.00 | 0.00 | 0.00 | 80 | 977.2 |
| 20260831015813 | 71 | 168 | 0.0 | 0.0 | 0.00 | 0.00 | 0.00 | 80 | 977.1 |
| 20260831014802 | 71 | 168 | 0.0 | 0.0 | 0.00 | 0.00 | 0.00 | 82 | 977.1 |
| 20260831013749 | 71 | 168 | 0.0 | 0.0 | 0.00 | 0.00 | 0.00 | 83 | 977.0 |
| 20260831013247 | 72 | 168 | 0.0 | 0.0 | 0.00 | 0.00 | 0.00 | 83 | 977.0 |
| 20260831012746 | 72 | 168 | 0.0 | 0.0 | 0.00 | 0.00 | 0.00 | 84 | 976.9 |
| 20260831012247 | 72 | 168 | 0.0 | 0.0 | 0.00 | 0.00 | 0.00 | 84 | 976.8 |
| 20260831011745 | 72 | 168 | 0.0 | 0.0 | 0.00 | 0.00 | 0.00 | 84 | 976.7 |
| 20260831011243 | 72 | 168 | 0.0 | 0.0 | 0.00 | 0.00 | 0.00 | 85 | 976.6 |
| 20260831010740 | 73 | 168 | 0.0 | 0.0 | 0.00 | 0.00 | 0.00 | 85 | 976.6 |
| 20260831010239 | 73 | 168 | 0.0 | 0.0 | 0.00 | 0.00 | 0.00 | 85 | 976.5 |
| 20260831005738 | 73 | 168 | 0.0 | 0.0 | 0.00 | 0.00 | 0.00 | 86 | 976.4 |
| 20260831005239 | 73 | 168 | 0.0 | 0.0 | 0.00 | 0.00 | 0.00 | 86 | 976.3 |
| 20260831004737 | 74 | 168 | 0.0 | 0.0 | 0.00 | 0.00 | 0.00 | 86 | 976.3 |
| 20260831004235 | 74 | 168 | 0.0 | 0.0 | 0.00 | 0.00 | 0.00 | 86 | 976.3 |
| 20260831003733 | 74 | 168 | 0.0 | 0.0 | 0.00 | 0.00 | 0.00 | 87 | 976.3 |
| 20260831002729 | 75 | 168 | 0.0 | 0.0 | 0.00 | 0.00 | 0.00 | 87 | 976.2 |
| 20260831002228 | 75 | 168 | 0.0 | 0.0 | 0.00 | 0.00 | 0.00 | 87 | 976.2 |
| 20260831001729 | 76 | 168 | 0.0 | 0.0 | 0.00 | 0.00 | 0.00 | 87 | 976.2 |
| 20260831001227 | 76 | 168 | 0.0 | 0.0 | 0.00 | 0.00 | 0.00 | 87 | 976.1 |
| 20260831000724 | 76 | 168 | 0.0 | 0.0 | 0.00 | 0.00 | 0.00 | 87 | 976.1 |
| 20260831000222 | 77 | 168 | 0.0 | 0.0 | 0.00 | 0.00 | 0.00 | 87 | 976.1 |
| 20260830235220 | 77 | 168 | 0.0 | 0.0 | 0.00 | 0.00 | 0.00 | 86 | 976.0 |
| 20260830234722 | 78 | 168 | 0.0 | 0.0 | 0.00 | 0.00 | 0.00 | 86 | 976.0 |
| 20260830234220 | 78 | 168 | 0.0 | 0.0 | 0.00 | 0.00 | 0.00 | 85 | 975.9 |
| 20260830233721 | 79 | 168 | 0.0 | 0.0 | 0.00 | 0.00 | 0.00 | 85 | 976.0 |
| 20260830233221 | 79 | 168 | 0.0 | 0.0 | 0.00 | 0.00 | 0.00 | 84 | 976.0 |
| 20260830232721 | 80 | 168 | 0.0 | 0.0 | 0.00 | 0.00 | 0.00 | 84 | 976.1 |
| 20260830232221 | 81 | 168 | 0.0 | 2.0 | 0.00 | 0.00 | 0.00 | 83 | 976.1 |
| 20260830231720 | 81 | 168 | 0.0 | 2.0 | 0.00 | 0.00 | 0.00 | 81 | 976.1 |
| 20260830231221 | 82 | 169 | 0.0 | 4.0 | 0.00 | 0.00 | 0.00 | 81 | 976.1 |
| 20260830230716 | 82 | 169 | 0.0 | 4.0 | 0.00 | 0.00 | 0.00 | 78 | 976.0 |
| 20260830230217 | 83 | 186 | 0.0 | 2.0 | 0.00 | 0.00 | 0.00 | 78 | 976.1 |
| 20260830225716 | 83 | 186 | 1.0 | 3.0 | 0.00 | 0.00 | 0.00 | 78 | 976.0 |
| 20260830225217 | 83 | 186 | 1.0 | 3.0 | 0.00 | 0.00 | 0.00 | 77 | 976.0 |
| 20260830224717 | 84 | 269 | 0.0 | 3.0 | 0.00 | 0.00 | 0.00 | 76 | 976.0 |
| 20260830224217 | 85 | 269 | 0.0 | 3.0 | 0.00 | 0.00 | 0.00 | 75 | 975.9 |
| 20260830223718 | 85 | 274 | 0.0 | 1.0 | 0.00 | 0.00 | 0.00 | 75 | 975.9 |
| 20260830223217 | 85 | 274 | 0.0 | 2.0 | 0.00 | 0.00 | 0.00 | 75 | 975.8 |
| 20260830221713 | 84 | 144 | 0.0 | 4.0 | 0.00 | 0.00 | 0.00 | 76 | 975.8 |
| 20260830221212 | 84 | 144 | 1.0 | 7.0 | 0.00 | 0.00 | 0.00 | 75 | 975.9 |
| 20260830220712 | 84 | 144 | 2.0 | 7.0 | 0.00 | 0.00 | 0.00 | 74 | 975.9 |
| 20260830220214 | 84 | 117 | 2.0 | 7.0 | 0.00 | 0.00 | 0.00 | 73 | 976.0 |
| 20260830215714 | 84 | 164 | 1.0 | 7.0 | 0.00 | 0.00 | 0.00 | 74 | 975.9 |
| 20260830215213 | 84 | 233 | 2.0 | 7.0 | 0.00 | 0.00 | 0.00 | 75 | 975.9 |
| 20260830214213 | 85 | 198 | 2.0 | 4.0 | 0.00 | 0.00 | 0.00 | 73 | 976.0 |
| 20260830213707 | 85 | 159 | 1.0 | 9.0 | 0.00 | 0.00 | 0.00 | 74 | 976.0 |
| 20260830213207 | 85 | 184 | 2.0 | 9.0 | 0.00 | 0.00 | 0.00 | 73 | 976.0 |
| 20260830212705 | 85 | 109 | 1.0 | 8.0 | 0.00 | 0.00 | 0.00 | 74 | 976.1 |
| 20260830212205 | 86 | 135 | 0.0 | 6.0 | 0.00 | 0.00 | 0.00 | 74 | 976.1 |
| 20260830211706 | 85 | 121 | 1.0 | 4.0 | 0.00 | 0.00 | 0.00 | 76 | 976.1 |
| 20260830211205 | 85 | 121 | 2.0 | 7.0 | 0.00 | 0.00 | 0.00 | 74 | 976.0 |
| 20260830210705 | 85 | 98 | 2.0 | 7.0 | 0.00 | 0.00 | 0.00 | 75 | 976.1 |
| 20260830210204 | 85 | 143 | 2.0 | 6.0 | 0.00 | 0.00 | 0.00 | 73 | 976.1 |
| 20260830205705 | 85 | 115 | 1.0 | 4.0 | 0.00 | 0.00 | 0.00 | 75 | 976.0 |
| 20260830204701 | 84 | 144 | 2.0 | 7.0 | 0.00 | 0.00 | 0.00 | 76 | 976.1 |
| 20260830203700 | 84 | 157 | 1.0 | 5.0 | 0.00 | 0.00 | 0.00 | 75 | 976.2 |
| 20260830203201 | 84 | 151 | 2.0 | 9.0 | 0.00 | 0.00 | 0.00 | 76 | 976.2 |
| 20260830202700 | 85 | 151 | 3.0 | 9.0 | 0.00 | 0.00 | 0.00 | 74 | 976.2 |
| 20260830202200 | 85 | 209 | 3.0 | 7.0 | 0.00 | 0.00 | 0.00 | 74 | 976.2 |
| 20260830201700 | 85 | 189 | 2.0 | 7.0 | 0.00 | 0.00 | 0.00 | 75 | 976.2 |
| 20260830201202 | 85 | 96 | 2.0 | 7.0 | 0.00 | 0.00 | 0.00 | 74 | 976.3 |
| 20260830200701 | 85 | 153 | 2.0 | 7.0 | 0.00 | 0.00 | 0.00 | 75 | 976.2 |
| 20260830200201 | 85 | 346 | 2.0 | 6.0 | 0.00 | 0.00 | 0.00 | 77 | 976.2 |
| 20260830195700 | 84 | 230 | 1.0 | 5.0 | 0.00 | 0.00 | 0.00 | 75 | 976.3 |
| 20260830195201 | 84 | 172 | 2.0 | 8.0 | 0.00 | 0.00 | 0.00 | 76 | 976.5 |
| 20260830194700 | 84 | 184 | 2.0 | 8.0 | 0.00 | 0.00 | 0.00 | 76 | 976.5 |
| 20260830194201 | 83 | 142 | 2.0 | 7.0 | 0.00 | 0.00 | 0.00 | 77 | 976.6 |
| 20260830193701 | 83 | 87 | 1.0 | 4.0 | 0.00 | 0.00 | 0.00 | 76 | 976.6 |
| 20260830193200 | 83 | 85 | 1.0 | 4.0 | 0.00 | 0.00 | 0.00 | 79 | 976.6 |
| 20260830192200 | 83 | 119 | 2.0 | 6.0 | 0.00 | 0.00 | 0.00 | 77 | 976.7 |
| 20260830191658 | 83 | 105 | 2.0 | 6.0 | 0.00 | 0.00 | 0.00 | 79 | 976.8 |
| 20260830190702 | 83 | 98 | 1.0 | 7.0 | 0.00 | 0.00 | 0.00 | 78 | 976.9 |
| 20260830190200 | 84 | 117 | 1.0 | 4.0 | 0.00 | 0.00 | 0.00 | 78 | 976.9 |
| 20260830185654 | 84 | 34 | 1.0 | 4.0 | 0.00 | 0.00 | 0.00 | 77 | 977.0 |
| 20260830185148 | 85 | 327 | 1.0 | 4.0 | 0.00 | 0.00 | 0.00 | 75 | 977.1 |
| 20260830184136 | 85 | 338 | 1.0 | 4.0 | 0.00 | 0.00 | 0.00 | 73 | 977.2 |
| 20260830183630 | 84 | 314 | 2.0 | 6.0 | 0.00 | 0.00 | 0.00 | 75 | 977.3 |
| 20260830183124 | 84 | 243 | 2.0 | 6.0 | 0.00 | 0.00 | 0.00 | 76 | 977.4 |
| 20260830182618 | 84 | 205 | 1.0 | 4.0 | 0.00 | 0.00 | 0.00 | 75 | 977.6 |
| 20260830182112 | 83 | 128 | 2.0 | 4.0 | 0.00 | 0.00 | 0.00 | 76 | 977.7 |
| 20260830181100 | 83 | 128 | 1.0 | 4.0 | 0.00 | 0.00 | 0.00 | 78 | 977.9 |
| 20260830180554 | 82 | 128 | 1.0 | 3.0 | 0.00 | 0.00 | 0.00 | 79 | 977.9 |
| 20260830175542 | 82 | 73 | 0.0 | 5.0 | 0.00 | 0.00 | 0.00 | 79 | 978.0 |
| 20260830174534 | 83 | 57 | 2.0 | 5.0 | 0.00 | 0.00 | 0.00 | 78 | 978.1 |
| 20260830174021 | 83 | 66 | 1.0 | 5.0 | 0.00 | 0.00 | 0.00 | 81 | 978.1 |
| 20260830173514 | 83 | 76 | 1.0 | 4.0 | 0.00 | 0.00 | 0.00 | 82 | 978.2 |
| 20260830173008 | 82 | 65 | 0.0 | 4.0 | 0.00 | 0.00 | 0.00 | 81 | 978.3 |
| 20260830172503 | 83 | 123 | 1.0 | 4.0 | 0.00 | 0.00 | 0.00 | 81 | 978.4 |
| 20260830171956 | 83 | 124 | 1.0 | 4.0 | 0.00 | 0.00 | 0.00 | 77 | 978.5 |
| 20260830170944 | 82 | 319 | 1.0 | 4.0 | 0.00 | 0.00 | 0.00 | 79 | 978.6 |
| 20260830170439 | 81 | 325 | 2.0 | 6.0 | 0.00 | 0.00 | 0.00 | 80 | 978.7 |
| 20260830165933 | 81 | 325 | 1.0 | 6.0 | 0.00 | 0.00 | 0.00 | 81 | 978.8 |
| 20260830165427 | 81 | 105 | 1.0 | 4.0 | 0.00 | 0.00 | 0.00 | 83 | 978.9 |
| 20260830164920 | 81 | 102 | 1.0 | 4.0 | 0.00 | 0.00 | 0.00 | 80 | 979.0 |
| 20260830164414 | 81 | 96 | 2.0 | 6.0 | 0.00 | 0.00 | 0.00 | 82 | 979.1 |
| 20260830163403 | 81 | 107 | 1.0 | 8.0 | 0.00 | 0.00 | 0.00 | 82 | 979.1 |
| 20260830162350 | 80 | 115 | 1.0 | 6.0 | 0.00 | 0.00 | 0.00 | 82 | 979.2 |
| 20260830161845 | 80 | 113 | 1.0 | 6.0 | 0.00 | 0.00 | 0.00 | 83 | 979.1 |
| 20260830161338 | 80 | 156 | 0.0 | 5.0 | 0.00 | 0.00 | 0.00 | 83 | 979.1 |
| 20260830160832 | 80 | 57 | 0.0 | 2.0 | 0.00 | 0.00 | 0.00 | 85 | 979.2 |
| 20260830160326 | 79 | 74 | 0.0 | 1.0 | 0.00 | 0.00 | 0.00 | 85 | 979.2 |
| 20260830155314 | 79 | 104 | 0.0 | 3.0 | 0.00 | 0.00 | 0.00 | 84 | 979.2 |
| 20260830154303 | 79 | 83 | 1.0 | 4.0 | 0.00 | 0.00 | 0.00 | 84 | 979.3 |